Location: České Budějovice
(48.9747°N, 14.4743°E)
Time: 13:42:24
(UTC+02:00)

ISS - Visible Passes

Search period start: 30 September 2022 00:00
Search period end: 10 October 2022 00:00
Orbit: 414 x 417 km, 51.6° (Epoch: 30 September)

Date Brightness Start Highest point End Pass type
(mag) Time Alt. Az. Time Alt. Az. Time Alt. Az.
30 Sep -3.8 19:44:11 10° WNW 19:47:33 83° SSW 19:49:52 19° ESE visible
30 Sep -1.1 21:21:25 10° W 21:22:45 16° WSW 21:22:45 16° WSW visible
01 Oct -2.3 20:32:19 10° W 20:35:16 29° SW 20:35:58 26° SSW visible
02 Oct -2.8 19:43:21 10° WNW 19:46:33 43° SSW 19:49:15 14° SE visible
03 Oct -1.1 20:32:12 10° WSW 20:33:58 14° SW 20:35:29 11° SSW visible
04 Oct -1.5 19:42:42 10° W 19:45:18 21° SW 19:47:53 10° SSE visible
